Flag for U.S.A. Weather past 2 weeks in Inglewood, California, U.S.A.

Now
58 °F

Passing clouds.


Feels Like: 58 °F
Forecast: 53 / 69 °F
Wind: 5 mph from East

Location: Hawthorne Municipal Airport

Current Time: Dec 20, 2014 at 11:14:48 PM

Latest Report: Dec 20, 2014 at 10:53 PM


Visibility: 8 mi

Pressure: 30.15 "Hg

Humidity: 72%

Dew point: 49 °F

Location of InglewoodLocation

Historic Weather in Inglewood — Graph

°F

Inglewood temperature yesterday

Maximum temperature yesterday: 66 °F (at 12:53 PM)
Minimum temperature yesterday: 52 °F (at 3:53 AM)
Average temperature yesterday: 58 °F

Past Weeks' High & Low Weather Summary

 TemperatureHumidityPressure
High77 °F (Dec 8, 1:53 PM)100% (Dec 10, 7:53 AM)30.24 "Hg (Dec 10, 7:53 AM)
Low50 °F (Dec 13, 6:53 AM)32% (Dec 8, 11:53 AM)29.81 "Hg (Dec 12, 2:53 AM)
Average61 °F71%30.07 "Hg
* Reported Dec 5 9:53 PM — Dec 20 9:53 PM, Inglewood, Weather by CustomWeather, © 2014

Note: Actual official high and low records may vary slightly from our data, if they occured in-between our weather recording intervals... More about our weather records

Advertising

Inglewood weather history for previous 24 hours

 ConditionsComfort  
Time TempWeatherWind HumidityBarometerVisibility
9:53 PM
Dec 20
60 °FClear.3 mph69%30.15 "Hg7 mi
8:53 PM61 °FOvercast.No wind70%30.15 "Hg8 mi
8:04 PM61 °FPassing clouds.No wind75%30.15 "Hg10 mi
7:53 PM61 °FPassing clouds.3 mph75%30.14 "Hg10 mi
7:00 PM62 °FPassing clouds.No wind78%30.15 "Hg10 mi
5:53 PM62 °FClear.5 mph78%30.12 "Hg10 mi
4:53 PM63 °FOvercast.3 mph75%30.13 "Hg10 mi
3:53 PM63 °FScattered clouds.5 mph73%30.11 "Hg10 mi
2:53 PM63 °FSunny.7 mph73%30.12 "Hg10 mi
1:53 PM64 °FPartly sunny.5 mph65%30.12 "Hg10 mi
12:53 PM63 °FScattered clouds.No wind63%30.14 "Hg10 mi
11:53 AM63 °FSunny.3 mph63%30.17 "Hg9 mi
10:53 AM62 °FSunny.No wind62%30.19 "Hg10 mi
9:53 AM59 °FSunny.5 mph69%30.21 "Hg8 mi
8:53 AM56 °FSunny.No wind72%30.20 "Hg10 mi
7:53 AM53 °FSunny.No wind83%30.17 "Hg10 mi
6:53 AM52 °FClear.No wind86%30.17 "Hg10 mi
5:53 AM53 °FClear.No wind83%30.16 "Hg10 mi
4:53 AM53 °FClear.No wind83%30.14 "Hg10 mi
3:53 AM53 °FClear.No wind83%30.15 "Hg10 mi
2:53 AM53 °FClear.No wind83%30.16 "Hg10 mi
1:53 AM54 °FClear.No wind80%30.15 "Hg10 mi
12:53 AM55 °FClear.No wind77%30.17 "Hg10 mi
11:53 PM
Dec 19
55 °FClear.No wind77%30.18 "Hg10 mi
Weather by CustomWeather, © 2014

See weather overviewHow to use our weather pages